GW2953 Weather Reports


Display with metric or nautical units.
time (UTC)temp
F
wind
direction
speed
MPH
gust
MPH
rain 1hr
in
rain 24hr
in
rain mn
in
humidity
%
barometer
mb
20260904005206 63 209 6.0 12.0 0.00 0.35 0.35 62 1010.3
20260904004706 63 218 8.0 10.0 0.00 0.35 0.35 63 1010.1
20260904004201 64 193 2.0 7.0 0.00 0.35 0.35 63 1010.4
20260904003656 63 183 2.0 7.0 0.00 0.35 0.35 63 1010.1
20260904003153 63 227 8.0 14.0 0.00 0.35 0.35 65 1010.2
20260904002648 63 176 5.0 13.0 0.00 0.35 0.35 62 1010.4
20260904002143 64 225 3.0 7.0 0.00 0.35 0.35 65 1010.4
20260904001638 63 115 3.0 9.0 0.00 0.35 0.35 67 1010.4
20260904001137 63 114 4.0 10.0 0.00 0.35 0.35 64 1010.5
20260904000633 62 173 7.0 13.0 0.00 0.35 0.35 66 1010.6
20260904000128 62 254 1.0 3.0 0.00 0.35 0.35 69 1010.4
20260903235628 60 176 4.0 6.0 0.00 0.35 0.35 71 1010.4
20260903235124 60 189 2.0 9.0 0.00 0.35 0.35 71 1010.4
20260903234619 60 283 0.0 7.0 0.00 0.35 0.35 73 1010.6
20260903234115 60 185 6.0 9.0 0.00 0.35 0.35 75 1010.4
20260903233610 60 172 4.0 8.0 0.00 0.35 0.35 76 1010.8
20260903233101 60 198 5.0 12.0 0.00 0.35 0.35 75 1010.8
20260903232555 60 73 1.0 5.0 0.00 0.35 0.35 77 1010.9
20260903232051 60 285 4.0 11.0 0.00 0.35 0.35 73 1010.9
20260903231545 60 119 3.0 9.0 0.00 0.35 0.35 74 1010.9
20260903231039 60 146 6.0 9.0 0.00 0.35 0.35 78 1010.9
20260903230536 60 173 5.0 7.0 0.00 0.35 0.35 79 1011.1
20260903230034 59 279 2.0 13.0 0.00 0.35 0.35 81 1011.1
20260903225532 59 100 1.0 8.0 0.00 0.35 0.35 80 1011.0
20260903225028 59 169 2.0 12.0 0.00 0.35 0.35 81 1011.2
20260903224524 60 135 6.0 7.0 0.00 0.35 0.35 82 1011.2
20260903224020 60 155 1.0 8.0 0.00 0.35 0.35 82 1011.0
20260903223519 59 177 5.0 11.0 0.00 0.35 0.35 83 1011.1
20260903223018 59 224 4.0 7.0 0.00 0.35 0.35 85 1011.0
20260903222514 59 225 0.0 4.0 0.00 0.35 0.35 85 1011.1
20260903222012 59 172 4.0 8.0 0.00 0.35 0.35 84 1011.1
20260903221508 58 258 1.0 6.0 0.00 0.35 0.35 86 1011.3
20260903221004 59 224 3.0 5.0 0.00 0.35 0.35 89 1011.1
20260903220459 58 154 0.0 3.0 0.00 0.35 0.35 90 1011.3
20260903215956 57 200 3.0 6.0 0.00 0.35 0.35 90 1011.3
20260903215453 58 255 2.0 4.0 0.00 0.35 0.35 93 1011.5
20260903214951 57 288 2.0 3.0 0.00 0.35 0.35 95 1011.6
20260903214446 57 195 1.0 5.0 0.00 0.35 0.35 96 1011.5
20260903213941 57 124 2.0 6.0 0.00 0.35 0.35 97 1011.4
20260903213437 56 89 0.0 6.0 0.00 0.35 0.35 97 1011.5
20260903212933 57 79 2.0 3.0 0.00 0.35 0.35 98 1011.5
20260903212428 57 42 3.0 5.0 0.00 0.35 0.35 98 1011.4
20260903211928 57 78 1.0 3.0 0.00 0.35 0.35 98 1011.4
20260903211424 57 81 1.0 3.0 0.00 0.35 0.35 98 1011.3
20260903210920 57 142 0.0 3.0 0.00 0.35 0.35 98 1011.4
20260903210419 57 199 0.0 2.0 0.00 0.35 0.35 98 1011.4
20260903205914 57 130 0.0 3.0 0.00 0.35 0.35 98 1011.4
20260903205414 57 116 1.0 2.0 0.00 0.35 0.35 98 1011.4
20260903204909 57 147 0.0 2.0 0.00 0.35 0.35 98 1011.3
20260903204405 56 248 0.0 1.0 0.00 0.35 0.35 98 1011.4
20260903203900 56 233 0.0 1.0 0.00 0.35 0.35 98 1011.5
20260903203356 56 206 0.0 2.0 0.00 0.35 0.35 98 1011.5
20260903202849 57 89 0.0 2.0 0.00 0.35 0.35 98 1011.5
20260903202346 56 58 0.0 3.0 0.00 0.35 0.35 98 1011.5
20260903201845 56 86 3.0 3.0 0.00 0.35 0.35 98 1011.7
20260903201341 56 86 1.0 3.0 0.00 0.35 0.35 98 1011.6
20260903200840 56 102 1.0 3.0 0.00 0.35 0.35 98 1011.5
20260903200335 56 150 0.0 3.0 0.00 0.35 0.35 98 1011.7
20260903195830 56 113 2.0 3.0 0.00 0.35 0.35 98 1011.7
20260903195326 56 171 2.0 4.0 0.00 0.35 0.35 98 1011.7
20260903194821 56 117 0.0 2.0 0.02 0.35 0.35 99 1011.6
20260903194316 56 152 2.0 3.0 0.02 0.35 0.35 98 1011.6
20260903193812 56 88 2.0 3.0 0.00 0.34 0.34 98 1011.8
20260903193308 56 82 2.0 3.0 0.00 0.34 0.34 98 1011.8
20260903192803 56 117 0.0 1.0 0.00 0.34 0.34 98 1011.9
20260903192259 56 65 1.0 2.0 0.02 0.34 0.34 98 1011.9
20260903191755 56 84 1.0 2.0 0.02 0.34 0.34 98 1011.9
20260903191250 55 87 2.0 3.0 0.00 0.34 0.34 98 1011.9
20260903190745 55 89 2.0 3.0 0.02 0.34 0.34 98 1012.2
20260903190245 55 59 1.0 2.0 0.02 0.34 0.34 98 1012.3
20260903185740 55 73 4.0 5.0 0.02 0.34 0.34 98 1012.2
20260903185239 55 212 0.0 2.0 0.02 0.34 0.34 98 1012.2
20260903184735 56 166 0.0 3.0 0.02 0.33 0.33 98 1012.3
20260903184232 56 85 2.0 3.0 0.05 0.33 0.33 98 1012.2
20260903183727 56 65 0.0 2.0 0.02 0.32 0.32 98 1012.2
20260903183221 55 79 2.0 3.0 0.07 0.32 0.32 98 1012.1
20260903182720 56 80 2.0 3.0 0.05 0.32 0.32 98 1012.4
20260903182215 55 134 1.0 2.0 0.02 0.31 0.31 98 1012.2
20260903181714 55 144 1.0 2.0 0.02 0.31 0.31 98 1012.4
20260903181209 55 71 1.0 3.0 0.05 0.31 0.31 98 1012.3
20260903180704 55 102 2.0 2.0 0.05 0.30 0.30 98 1012.2
20260903180204 56 94 1.0 3.0 0.05 0.30 0.30 98 1012.2
20260903175703 55 73 1.0 2.0 0.05 0.29 0.29 98 1012.2
20260903175157 56 86 2.0 2.0 0.05 0.29 0.29 98 1012.3
20260903174651 56 77 2.0 3.0 0.02 0.29 0.29 98 1012.3
20260903174146 55 65 1.0 3.0 0.00 0.28 0.28 98 1012.3
20260903173641 56 118 1.0 2.0 0.00 0.28 0.28 98 1012.2
20260903173138 55 50 0.0 1.0 0.02 0.28 0.28 98 1012.3
20260903172637 55 57 0.0 2.0 0.02 0.28 0.28 98 1012.2
20260903172133 55 241 2.0 3.0 0.02 0.28 0.28 97 1012.1
20260903171632 55 303 1.0 3.0 0.05 0.28 0.28 98 1012.1
20260903171129 55 141 0.0 3.0 0.05 0.28 0.28 98 1012.2
20260903170627 55 349 1.0 3.0 0.05 0.27 0.27 97 1012.2
20260903170123 55 118 1.0 3.0 0.02 0.27 0.27 97 1012.1
20260903165621 55 329 0.0 3.0 0.05 0.26 0.26 98 1012.2
20260903165116 55 212 5.0 5.0 0.07 0.26 0.26 97 1012.4
20260903164610 54 299 0.0 1.0 0.05 0.26 0.26 98 1012.2
20260903164106 54 337 3.0 9.0 0.07 0.25 0.25 98 1012.2
20260903163601 55 273 4.0 7.0 0.02 0.24 0.24 98 1012.3
20260903163057 55 165 3.0 4.0 0.00 0.24 0.24 98 1012.3
20260903162553 55 279 0.0 3.0 0.00 0.24 0.24 99 1012.2
20260903162049 54 288 2.0 3.0 0.00 0.24 0.24 98 1012.1
20260903161544 55 245 3.0 3.0 0.00 0.24 0.24 98 1012.1
20260903161040 55 241 2.0 3.0 0.02 0.24 0.24 98 1012.3
20260903160538 54 237 0.0 2.0 0.05 0.24 0.24 99 1012.4
20260903160033 55 252 3.0 5.0 0.05 0.24 0.24 99 1012.6
20260903155532 55 252 3.0 5.0 0.07 0.23 0.23 99 1012.4
20260903155027 54 246 1.0 3.0 0.09 0.23 0.23 99 1012.5
20260903154518 54 249 6.0 10.0 0.12 0.22 0.22 99 1012.5
20260903154015 55 151 2.0 4.0 0.09 0.21 0.21 99 1012.5
20260903153509 55 158 2.0 3.0 0.12 0.20 0.20 99 1012.4
20260903153005 55 147 0.0 1.0 0.12 0.19 0.19 99 1012.6
20260903152500 55 113 0.0 1.0 0.09 0.18 0.18 99 1012.5
20260903151956 55 113 0.0 1.0 0.05 0.17 0.17 99 1012.5
20260903151450 54 147 0.0 1.0 0.02 0.16 0.16 99 1012.4
20260903150945 54 147 0.0 1.0 0.02 0.16 0.16 99 1012.5
20260903150439 55 326 0.0 1.0 0.07 0.16 0.16 99 1012.3
20260903145934 55 309 0.0 0.0 0.07 0.15 0.15 99 1012.5
20260903145430 55 195 0.0 2.0 0.05 0.15 0.15 99 1012.5
20260903144929 55 209 0.0 1.0 0.00 0.14 0.14 99 1012.5
20260903144424 55 129 0.0 1.0 0.02 0.14 0.14 99 1012.3
20260903143920 55 56 1.0 2.0 0.02 0.14 0.14 99 1012.6
20260903143416 54 149 0.0 1.0 0.00 0.13 0.13 99 1012.5
20260903142911 54 173 0.0 1.0 0.00 0.13 0.13 99 1012.5
20260903142407 54 173 0.0 1.0 0.02 0.13 0.13 99 1012.5
20260903141903 54 239 0.0 2.0 0.02 0.13 0.13 99 1012.6
20260903141358 54 34 0.0 1.0 0.00 0.13 0.13 99 1012.6
20260903140854 54 57 1.0 2.0 0.05 0.13 0.13 99 1012.4
20260903140349 54 64 2.0 3.0 0.05 0.13 0.13 99 1012.4
20260903135844 54 55 1.0 1.0 0.05 0.12 0.12 99 1012.6
20260903135340 54 261 1.0 2.0 0.07 0.12 0.12 99 1012.6
20260903134838 54 218 0.0 1.0 0.05 0.11 0.11 98 1012.4
20260903134334 54 38 1.0 2.0 0.05 0.11 0.11 99 1012.6
20260903133831 54 76 1.0 2.0 0.05 0.10 0.10 99 1012.4
20260903133327 54 25 0.0 2.0 0.05 0.10 0.10 99 1012.5
20260903132822 54 324 2.0 5.0 0.07 0.09 0.09 99 1012.4
20260903132318 54 306 2.0 4.0 0.05 0.09 0.09 99 1012.5
20260903131813 54 276 2.0 4.0 0.05 0.08 0.08 99 1012.6
20260903131312 54 285 3.0 4.0 0.02 0.08 0.08 99 1012.4
20260903130807 54 272 5.0 6.0 0.02 0.07 0.07 99 1012.4
20260903130307 54 278 4.0 6.0 0.02 0.07 0.07 99 1012.4
20260903125805 54 274 5.0 6.0 0.02 0.07 0.07 99 1012.5
20260903125301 54 329 1.0 5.0 0.05 0.07 0.07 99 1012.8
20260903124800 54 273 3.0 5.0 0.05 0.07 0.07 99 1012.6
20260903124255 54 301 5.0 6.0 0.02 0.06 0.06 99 1012.5
20260903123754 54 273 7.0 9.0 0.05 0.06 0.06 99 1012.6
20260903123253 54 268 3.0 7.0 0.02 0.06 0.06 99 1012.5
20260903122752 55 204 1.0 5.0 0.00 0.05 0.05 99 1012.5
20260903122247 55 256 3.0 5.0 0.00 0.05 0.05 99 1012.6
20260903121745 55 272 5.0 9.0 0.00 0.05 0.05 99 1012.8
20260903121242 55 146 2.0 3.0 0.00 0.05 0.05 99 1012.8
20260903120737 55 293 3.0 7.0 0.00 0.05 0.05 99 1012.8
20260903120230 55 221 2.0 6.0 0.02 0.05 0.05 99 1012.6
20260903115729 55 286 3.0 4.0 0.00 0.05 0.05 99 1012.4
20260903115224 55 290 3.0 4.0 0.00 0.05 0.05 99 1012.9
20260903114718 55 44 0.0 1.0 0.00 0.05 0.05 99 1012.8
20260903114214 55 44 0.0 1.0 0.00 0.05 0.05 99 1012.8
20260903113709 55 99 2.0 4.0 0.00 0.05 0.05 99 1012.9
20260903113205 55 30 2.0 3.0 0.00 0.05 0.05 99 1012.8
20260903112701 55 291 1.0 2.0 0.00 0.05 0.05 99 1012.6
20260903112156 55 9 0.0 2.0 0.00 0.05 0.05 99 1013.0
20260903111654 55 71 2.0 3.0 0.00 0.05 0.05 99 1013.2
20260903111150 55 80 2.0 3.0 0.00 0.05 0.05 99 1013.0
20260903110647 55 75 2.0 3.0 0.00 0.05 0.05 99 1013.1
20260903110142 55 76 0.0 1.0 0.00 0.05 0.05 99 1013.2
20260903105636 55 275 0.0 2.0 0.00 0.05 0.05 99 1013.0
20260903105132 55 89 0.0 2.0 0.00 0.05 0.05 99 1013.1
20260903104631 55 164 0.0 1.0 0.00 0.05 0.05 99 1013.2
20260903104127 55 136 0.0 1.0 0.00 0.05 0.05 99 1013.3
20260903103622 55 142 0.0 1.0 0.02 0.05 0.05 99 1013.3
20260903103119 55 142 0.0 2.0 0.02 0.05 0.05 99 1013.1
20260903102614 55 235 0.0 0.0 0.02 0.04 0.04 99 1013.3
20260903102112 55 315 0.0 1.0 0.05 0.04 0.04 99 1013.3
20260903101607 55 336 0.0 1.0 0.07 0.04 0.04 99 1013.2
20260903101103 55 224 1.0 2.0 0.07 0.04 0.04 99 1013.4
20260903100603 55 89 0.0 0.0 0.07 0.03 0.03 99 1013.5
20260903095554 55 322 0.0 2.0 0.02 0.02 0.02 99 1013.3
20260903095049 55 157 0.0 1.0 0.00 0.01 0.01 99 1013.3
20260903094549 55 217 0.0 1.0 0.00 0.01 0.01 99 1013.3
20260903094045 55 75 0.0 2.0 0.00 0.01 0.01 99 1013.4
20260903093545 55 106 0.0 2.0 0.02 0.01 0.01 99 1013.5
20260903093040 55 87 0.0 2.0 0.02 0.01 0.01 99 1013.5
20260903092539 55 70 3.0 4.0 0.00 0.01 0.01 99 1013.6
20260903092034 55 73 2.0 3.0 0.00 0.01 0.01 99 1013.7
20260903091532 55 82 2.0 3.0 0.02 0.01 0.01 99 1013.7
20260903091027 55 310 0.0 1.0 0.02 0.01 0.01 99 1013.9
20260903090523 55 302 0.0 2.0 0.00 0.00 0.00 99 1013.8
20260903090022 55 75 0.0 0.0 0.02 0.00 0.00 99 1013.8
20260903085520 55 54 2.0 2.0 0.02 0.00 0.00 99 1013.8
20260903085016 55 309 0.0 1.0 0.00 0.00 0.00 99 1013.8
20260903084514 55 110 0.0 2.0 0.00 0.00 0.00 99 1013.8
20260903084008 55 106 2.0 2.0 0.00 0.00 0.00 99 1013.8
20260903083504 55 269 0.0 2.0 0.00 0.00 0.00 99 1013.6
20260903082959 55 240 0.0 2.0 0.00 0.00 0.00 99 1013.6
20260903082453 55 50 0.0 1.0 0.00 0.00 0.00 99 1013.8
20260903081948 55 75 0.0 2.0 0.00 0.00 0.00 99 1013.8
20260903081444 55 75 2.0 3.0 0.00 0.00 0.00 99 1013.8
20260903080940 55 48 1.0 2.0 0.00 0.00 0.00 99 1013.9
20260903080435 55 269 0.0 2.0 0.00 0.00 0.00 99 1013.8
20260903075931 55 89 0.0 2.0 0.00 0.00 0.00 99 1013.5
20260903075427 55 47 1.0 1.0 0.00 0.00 0.00 99 1013.8
20260903074921 55 130 0.0 2.0 0.00 0.00 0.00 99 1013.8
20260903074420 55 52 0.0 1.0 0.00 0.00 0.00 99 1013.6
20260903073916 55 77 3.0 3.0 0.00 0.00 0.00 99 1013.8
20260903073411 55 63 2.0 2.0 0.00 0.00 0.00 99 1013.9
20260903072907 55 62 0.0 0.0 0.00 0.00 0.00 99 1013.8
20260903072403 55 62 0.0 0.0 0.00 0.00 0.00 99 1014.2
20260903071900 55 55 0.0 1.0 0.00 0.00 0.00 99 1013.9
20260903071355 55 124 0.0 1.0 0.00 0.00 0.00 99 1013.9
20260903070850 55 89 0.0 1.0 0.00 0.00 0.00 99 1014.0
20260903070345 55 328 1.0 1.0 0.00 0.00 0.00 99 1013.8
20260903065840 55 60 0.0 1.0 0.00 0.43 0.43 99 1013.9
20260903065339 55 228 0.0 1.0 0.00 0.43 0.43 99 1013.9
20260903064839 55 135 0.0 1.0 0.00 0.43 0.43 99 1013.9
20260903064334 55 85 1.0 3.0 0.00 0.43 0.43 99 1013.9
20260903063830 55 64 2.0 3.0 0.00 0.43 0.43 99 1014.0
20260903063325 55 89 2.0 2.0 0.00 0.43 0.43 99 1014.0
20260903062821 55 299 0.0 0.0 0.00 0.43 0.43 99 1014.1
20260903062320 55 102 0.0 0.0 0.00 0.43 0.43 99 1014.1
20260903061817 55 70 1.0 2.0 0.00 0.43 0.43 99 1014.2
20260903061316 55 59 0.0 1.0 0.02 0.43 0.43 99 1014.2
20260903060813 55 135 0.0 0.0 0.02 0.43 0.43 99 1014.2
20260903060311 55 135 0.0 1.0 0.00 0.43 0.43 99 1014.2
20260903055809 55 68 0.0 1.0 0.00 0.43 0.43 99 1014.3
20260903055308 55 96 1.0 2.0 0.05 0.43 0.43 99 1014.5
20260903054803 55 62 0.0 0.0 0.07 0.42 0.42 98 1014.3
20260903054303 55 62 0.0 0.0 0.07 0.42 0.42 99 1014.4
20260903053759 55 88 0.0 1.0 0.07 0.41 0.41 98 1014.5
20260903053254 55 147 0.0 1.0 0.05 0.41 0.41 99 1014.8
20260903052750 55 296 0.0 1.0 0.05 0.40 0.40 98 1014.7
20260903052245 55 293 1.0 2.0 0.02 0.40 0.40 98 1014.7
20260903051740 55 269 0.0 1.0 0.00 0.39 0.39 98 1014.4
20260903051236 55 135 0.0 0.0 0.00 0.39 0.39 98 1014.8
20260903050731 55 135 0.0 1.0 0.00 0.39 0.39 98 1014.5
20260903050230 55 70 1.0 2.0 0.00 0.39 0.39 98 1014.4
20260903045725 55 89 1.0 2.0 0.00 0.39 0.39 98 1014.4
20260903045222 55 55 0.0 1.0 0.00 0.39 0.39 98 1014.4
20260903044717 55 150 0.0 1.0 0.00 0.39 0.39 98 1014.5
20260903044213 55 58 0.0 1.0 0.00 0.39 0.39 98 1014.3
20260903043710 55 87 0.0 1.0 0.02 0.39 0.39 98 1014.5
20260903043209 55 66 0.0 2.0 0.02 0.39 0.39 98 1014.5
20260903042708 55 75 0.0 0.0 0.02 0.39 0.39 98 1014.4
20260903042203 55 154 0.0 1.0 0.05 0.39 0.39 98 1014.3
20260903041700 55 126 0.0 2.0 0.07 0.39 0.39 98 1014.0
20260903041155 55 89 0.0 2.0 0.12 0.38 0.38 98 1014.3
20260903040654 55 164 0.0 1.0 0.12 0.37 0.37 98 1014.2
20260903040150 55 205 0.0 1.0 0.05 0.36 0.36 98 1014.2
20260903035646 55 155 0.0 1.0 0.07 0.35 0.35 98 1014.0
20260903035141 55 76 0.0 2.0 0.17 0.35 0.35 98 1014.1
20260903034636 55 87 1.0 1.0 0.17 0.34 0.34 98 1014.0
20260903034131 55 50 0.0 2.0 0.14 0.32 0.32 98 1014.2
20260903033626 55 129 0.0 1.0 0.05 0.30 0.30 98 1013.8
20260903033121 55 120 1.0 2.0 0.02 0.29 0.29 98 1013.8
20260903032616 55 76 0.0 2.0 0.05 0.29 0.29 98 1013.9
20260903032111 55 40 0.0 2.0 0.07 0.29 0.29 98 1013.9
20260903031606 55 89 0.0 2.0 0.09 0.28 0.28 98 1013.9
20260903031101 55 77 2.0 2.0 0.12 0.27 0.27 98 1013.8
20260903030556 55 76 1.0 2.0 0.12 0.26 0.26 98 1013.7
20260903030053 55 130 0.0 3.0 0.09 0.25 0.25 98 1013.7
20260903025548 55 174 2.0 2.0 0.07 0.24 0.24 98 1013.7
20260903025044 55 333 1.0 2.0 0.07 0.23 0.23 98 1013.7
20260903024543 56 191 0.0 3.0 0.09 0.23 0.23 98 1013.8
20260903024037 55 220 2.0 3.0 0.09 0.22 0.22 97 1013.9
20260903023533 56 218 0.0 2.0 0.07 0.21 0.21 97 1013.8
20260903023028 56 155 2.0 2.0 0.05 0.20 0.20 97 1013.5
20260903022527 56 50 0.0 1.0 0.05 0.19 0.19 97 1013.8
20260903022026 56 249 0.0 1.0 0.02 0.19 0.19 97 1013.8
20260903021521 55 315 0.0 1.0 0.00 0.18 0.18 97 1013.9
20260903021016 56 154 0.0 1.0 0.02 0.18 0.18 97 1014.0
20260903020512 55 205 0.0 1.0 0.02 0.18 0.18 97 1013.8
20260903020006 55 60 1.0 3.0 0.12 0.18 0.18 97 1013.9
20260903015502 56 125 2.0 3.0 0.14 0.17 0.17 97 1013.9
20260903014956 56 233 0.0 1.0 0.09 0.16 0.16 97 1014.0
20260903014455 56 102 1.0 2.0 0.05 0.15 0.15 97 1014.1
20260903013951 56 145 2.0 2.0 0.07 0.15 0.15 97 1014.1
20260903013451 56 218 0.0 1.0 0.05 0.14 0.14 97 1014.1
20260903012950 56 193 0.0 1.0 0.02 0.13 0.13 97 1014.2
20260903012449 56 143 1.0 3.0 0.07 0.13 0.13 96 1014.1
20260903011948 56 326 0.0 1.0 0.12 0.13 0.13 96 1014.2
20260903011443 56 135 0.0 2.0 0.07 0.12 0.12 96 1014.3
20260903010938 56 155 1.0 3.0 0.07 0.11 0.11 96 1014.2
20260903010434 56 160 3.0 4.0 0.05 0.10 0.10 96 1014.3
20260903005931 56 132 1.0 3.0 0.07 0.10 0.10 96 1014.2